SCP
0 0 0 0 0 -0 0 -0 -0 0 0 0 0 0 0 0 -0 -0 -0 0 0 0 -0 0 0 0 0 0 0 0 0 0 0 -0 0 0 -0 0 0 0 -0 0 0 0
0 0 0 0 0 0 0 0 0 0 0 0 0 0 0 0 0 0 0 0 0 -0 0 0 0 0 0 0 0 0 0 0 0 -0 0 0 0 -0 -0 -0 -0 -0 -0 -0
0 0 0 0 0 0 0 0 0 0 0 0 0 0 0 0 0 0 0 0 0 0 0 -0 -0 -0 -0 -0 -0 0 0 0 0 0 -0 -0 -0 0 0 0 0 0 0 -0
0 0 0 0 0 0 0 0 0 0 0 0 0 0 0 0 0 0 0 0 0 0 0 -0 -0 -0 -0 -0 0 0 0 0 0 0 0 0 -0 0 -0 0 0 0 0 0
0 0 0 0 0 0 0 0 0 0 0 0 0 0 0 0 0 0 0 0 0 -0 -0 -0 -0 0 -0 -0 0 0 0 0 0 0 0 0 0 0 0 -0 0 0 0 0
0 0 0 0 0 0 0 0 0 0 0 0 0 0 0 0 0 -0 0 0 0 0 0 0 0 0 0 0 0 0 0 0 0 0 0 0 0 0 0 0 0 -0 0 0
0 0 0 0 0 0 0 0 0 0 0 0 0 0 0 0 0 0 0 0 0 0 0 0 0 0 0 0 0 0 0 0 0 0 0 0 0 0 0 0 0 0 -0 -0
0 0 0 0 0 0 0 0 0 0 0 0 0 0 0 0 0 0 0 0 0 0 0 0 0 0 0 0 0 0 0 0 0 0 0 0 0 0 0 0 0 0 0 -0
0 0 0 0 0 0 0 0 0 0 0 0 0 0 0 0 0 0 0 0 0 0 0 0 0 0 0 0 0 0 0 0 0 0 0 0 0 0 0 0 0 0 0 0
0 0 0 0 0 0 0 0 0 0 0 0 0 0 0 0 0 0 0 0 0 0 0 0 0 0 0 0 0 0 0 0 0 0 0 0 0 0 0 0 0 0 0 0
0 0 0 0 0 0 0 0 0 0 0 0 0 0 0 0 0 0 0 0 0 0 0 0 0 0 0 0 0 0 0 0 0 0 0 0 0 0 0 0 0 0 0 0
0 0 0 0 0 0 0 0 0 0 0 0 0 0 0 0 0 0 0 0 0 0 0 0 0 0 0 0 0 0 0 0 0 0 0 0 0 0 0 0 0 0 0 0
0 0 0 0 0 0 0 0 0 0 0 0 0 0 0 0 0 0 0 0 0 0 0 0 0 0 0 0 0 0 0 0 0 0 0 0 0 0 0 0 0 0 0 0
0 0 0 0 0 0 0 0 0 0 0 0 0 0 0 0 0 0 0 0 0 0 0 0 0 0 -0 0 0 0 0 0 0 0 0 0 0 0 0 0 0 0 0 0
0 0 0 0 0 0 0 0 0 0 0 0 0 0 0 0 0 0 0 0 0 0 0 0 0 0 0 0 0 0 0 0 0 0 0 0 0 0 0 0 0 0 0 0
0 0 0 0 0 0 0 0 0 0 0 0 0 0 0 0 0 0 0 0 0 0 0 0 0 0 0 0 0 0 0 0 0 0 0 0 0 0 0 0 0 0 0 0
0 0 0 0 0 0 0 0 0 0 0 0 0 0 0 0 0 0 -0 0 0 0 0 0 0 0 0 0 0 0 0 0 0 0 0 0 0 0 0 0 0 0 0 0
0 0 0 0 0 0 0 0 0 0 0 0 0 0 0 0 0 -0 -0 -0 0 0 0 0 0 0 0 0 0 0 0 0 0 0 0 0 0 0 0 0 -0 -0 0 0
0 0 0 0 0 0 0 0 0 0 0 0 0 0 0 0 -0 -0 -0 0 0 0 0 0 0 0 0 0 0 0 0 0 0 0 0 0 0 -0 -0 0 0 -0 0 0
0 0 0 0 0 0 0 0 0 0 0 0 0 0 0 -0 -0 -0 0 0 0 0 0 0 0 0 0 0 0 0 0 0 0 0 0 0 0 0 0 -0 -0 0 0 -0
0 0 0 0 0 0 0 0 0 0 0 0 0 0 0 -0 0 0 -0 0 0 -0 0 0 0 0 0 0 0 0 0 0 0 0 0 0 0 0 0 -0 -0 -0 -0 -0
0 0 0 0 0 0 0 0 0 0 0 0 0 0 -0 0 0 0 -0 0 -0 0 0 0 0 -0 0 0 0 0 0 0 0 0 0 0 0 0 0 0 -0 -0 -0 -0
0 0 0 0 0 0 0 0 0 0 0 0 0 0 0 0 0 0 0 0 -0 -0 0 0 -0 -0 0 0 0 0 0 0 0 0 0 0 0 0 0 0 0 -0 -0 -0
0 0 0 0 0 0 0 0 0 0 0 0 0 0 0 0 0 0 0 -0 -0 0 0 0 0 0 0 0 0 0 0 0 0 0 0 -0 0 0 0 0 -0 0 0 0
0 0 0 0 0 0 0 0 0 0 0 0 0 0 0 0 0 0 0 0 0 0 0 0 0 0 0 0 0 0 0 0 0 0 0 0 0 0 0 0 0 -0 0 -0
0 0 0 0 0 0 0 0 0 0 0 0 0 0 0 0 0 0 0 0 0 0 0 0 0 0 0 0 0 0 0 0 0 0 0 0 0 0 0 -0 0 0 0 0
0 0 0 0 0 -0 -0 0 0 0 0 0 0 0 0 0 0 0 0 0 0 0 0 0 0 0 0 0 0 0 0 0 0 0 0 0 0 0 0 0 0 -0 -0 0
Wind_Speed_500mb
25 24 23 27 32 34 33 29 17 30 36 43 33 4 1 6 8 13 9 11 16 22 26 32 39 44 48 51 54 59 62 63 64 60 58 60 61 61 59 53 53 54 57 58
27 33 28 32 35 39 38 41 44 47 51 39 1 4 8 12 15 19 15 19 23 28 31 36 39 46 46 49 54 60 63 65 67 72 71 65 65 69 69 65 61 59 61 58
35 31 19 21 39 34 38 46 47 45 27 11 4 9 17 18 28 32 26 29 35 38 37 35 38 48 52 54 55 55 56 60 65 71 77 79 80 73 73 75 73 70 66 64
22 16 38 30 23 27 35 35 1 6 7 4 8 21 26 26 35 38 33 31 39 45 49 47 54 60 63 64 62 61 58 60 65 72 78 81 84 86 83 80 78 77 77 73
16 30 36 39 33 18 17 27 14 15 7 9 24 25 42 31 41 44 43 41 48 60 69 71 70 69 71 73 74 76 75 78 76 76 77 81 85 91 94 94 93 87 83 82
5 14 19 14 4 5 4 18 18 10 5 16 19 17 26 49 43 43 47 55 60 61 71 78 80 80 85 92 91 91 89 87 86 86 86 86 86 89 95 98 100 102 100 90
25 23 18 11 9 12 10 9 17 21 33 32 20 36 50 47 44 49 54 65 70 69 80 87 84 90 97 95 92 80 85 95 98 101 105 103 101 96 95 100 106 107 109 107
2 7 20 11 14 11 3 29 40 38 45 41 46 43 45 48 50 47 47 53 64 79 88 89 94 91 93 101 94 84 78 89 103 114 120 120 119 116 109 106 107 113 116 118
17 14 9 15 20 35 57 57 59 51 50 42 39 44 43 41 37 41 49 63 74 80 90 95 95 88 88 100 87 92 104 114 112 107 113 117 118 120 114 118 113 114 112 107
25 38 42 60 64 68 71 60 54 50 49 48 37 32 43 45 47 53 58 64 73 83 91 102 104 102 95 106 105 105 112 111 104 96 96 94 94 92 88 94 99 95 92 95
29 41 50 63 63 71 67 58 49 44 41 34 37 41 41 47 55 58 59 64 65 81 93 102 104 103 99 101 103 105 104 101 93 88 86 86 82 81 80 84 83 87 90 84
31 57 43 63 63 55 48 41 38 38 35 33 33 40 47 53 55 59 62 69 79 85 90 93 90 92 93 86 80 81 86 82 79 81 83 82 84 89 81 79 82 85 90 90
57 79 63 73 57 50 51 44 35 32 31 35 36 39 45 53 57 68 73 73 75 78 81 83 86 88 83 74 71 76 82 85 84 80 80 79 80 81 87 83 69 71 74 78
70 62 56 49 29 37 38 34 30 30 30 33 36 40 46 55 65 70 75 72 69 70 75 79 83 84 78 70 72 75 76 79 82 82 80 79 79 80 80 77 77 76 62 61
63 59 53 38 34 33 30 29 28 28 32 33 38 44 53 63 69 73 69 62 63 68 75 77 78 79 70 69 70 72 74 77 78 80 81 82 83 83 82 80 77 78 75 57
42 39 31 30 30 28 26 26 27 26 31 38 44 50 56 61 64 64 57 54 63 70 71 70 76 77 72 66 66 69 72 72 72 74 76 77 76 75 75 73 70 68 61 53
20 21 27 26 26 27 26 25 25 30 38 44 49 52 56 58 59 53 48 50 55 59 61 67 74 70 66 65 62 61 65 69 67 67 68 69 70 72 72 68 63 57 46 34
28 27 23 23 22 24 25 27 32 38 44 47 49 52 53 51 49 45 44 48 51 54 59 63 64 62 59 55 55 55 56 55 54 54 54 55 58 61 62 61 51 45 42 39
21 20 18 19 22 25 30 35 39 42 43 46 49 49 46 40 35 35 38 41 46 54 58 59 59 59 60 54 47 47 46 46 45 44 43 42 42 39 32 30 32 30 29 25
15 15 17 20 25 31 36 36 42 45 41 44 44 41 37 26 25 27 29 31 37 45 49 52 56 58 57 49 42 41 40 40 39 39 39 38 39 38 34 28 24 20 15 10
15 19 22 27 30 30 35 41 45 44 39 36 37 31 26 19 18 22 25 29 32 37 40 45 49 55 53 49 45 40 38 39 39 39 39 39 39 38 36 33 29 24 19 15
18 22 25 29 33 33 32 35 37 37 34 29 24 21 19 16 16 14 17 27 32 35 39 42 46 49 49 49 49 48 44 41 41 42 42 41 42 41 39 37 35 31 27 23
21 24 27 29 30 31 29 28 27 28 25 20 16 15 15 14 15 18 16 20 26 31 33 35 39 41 42 46 48 50 52 52 49 46 45 45 45 45 44 42 42 42 41 41
18 21 22 24 26 27 26 20 20 17 16 14 12 12 11 9 8 12 16 20 22 25 27 30 31 33 36 40 42 46 49 51 52 51 49 47 45 45 45 44 44 43 44 43
13 15 17 18 17 18 17 16 13 10 10 7 7 7 8 8 8 11 15 17 19 21 23 24 27 29 31 33 36 39 41 43 45 46 47 48 47 46 44 42 41 39 38 37
7 9 12 13 14 14 12 11 10 8 6 4 4 5 6 7 9 12 15 17 19 21 23 25 27 28 29 30 31 32 32 32 34 35 36 37 37 38 38 36 34 32 31 30
5 7 7 8 9 10 9 9 8 7 6 6 5 7 8 9 11 13 15 16 18 19 21 23 24 25 26 27 28 28 28 28 27 27 27 26 25 25 25 24 23 22 21 19
Wind_Direction_500mb
275 280 279 273 275 265 260 268 258 285 288 279 299 331 10 322 265 236 272 323 334 340 338 341 338 335 333 333 334 333 334 335 335 333 331 329 330 330 329 322 311 315 319 318
282 278 259 263 261 264 275 272 264 261 266 287 302 325 262 293 303 284 298 332 335 333 329 330 326 329 324 320 323 324 325 324 323 322 324 327 325 323 325 326 324 314 299 305
270 276 288 260 246 260 267 270 271 275 293 97 185 286 302 306 318 303 295 325 332 330 323 312 309 317 320 315 314 313 311 312 315 317 318 320 322 323 322 322 322 322 315 303
272 299 258 274 314 276 271 281 32 115 129 198 286 302 295 291 293 291 276 300 317 323 321 317 312 312 316 313 305 304 300 300 303 306 307 310 313 315 317 318 319 319 315 313
251 251 287 301 281 253 245 278 182 161 177 334 319 301 295 298 298 290 276 279 302 319 319 317 313 310 312 311 309 303 299 299 299 298 297 298 301 304 308 311 312 313 314 312
167 249 265 306 124 109 122 276 176 189 261 296 302 276 293 308 305 292 286 278 293 307 311 311 311 310 309 309 309 305 304 301 299 297 295 295 294 295 298 300 303 306 306 307
237 250 266 267 151 144 237 293 170 250 272 281 268 268 288 295 294 294 297 285 287 299 306 307 307 309 306 307 304 303 302 300 297 296 296 295 293 291 292 292 295 296 298 298
169 248 267 172 130 222 267 299 300 289 293 289 293 287 287 294 298 296 288 287 293 300 301 302 305 308 307 305 307 302 296 296 296 297 295 293 293 291 289 289 288 289 292 293
215 246 257 200 244 258 285 288 286 288 294 295 287 286 290 293 293 290 292 297 301 303 304 304 306 307 304 304 303 299 296 294 293 293 293 293 292 291 290 287 286 284 285 286
262 254 259 268 268 273 279 279 283 287 293 292 284 288 296 298 298 299 302 304 305 305 306 306 307 306 302 301 300 296 293 293 293 292 291 289 287 286 283 282 281 279 278 276
252 262 273 266 267 270 274 276 276 276 281 280 287 295 299 300 302 305 305 306 307 308 308 307 310 308 308 307 305 300 297 295 294 293 291 290 286 283 278 275 272 274 270 268
256 268 262 273 276 277 275 262 259 271 276 282 290 296 300 303 306 306 308 310 312 312 312 313 313 313 314 315 313 309 304 300 298 295 294 292 290 289 285 277 275 269 266 264
254 268 269 267 276 262 261 260 261 270 277 287 293 296 302 305 307 309 313 315 317 316 317 318 317 315 318 320 318 312 306 303 299 295 292 290 289 287 288 292 282 273 268 265
265 271 268 254 244 253 250 252 262 276 282 289 294 301 304 306 309 314 318 321 319 320 322 324 322 318 323 319 315 313 311 309 304 299 295 292 289 286 286 285 287 288 281 273
269 258 257 253 246 243 246 257 266 278 287 291 297 306 311 313 315 317 321 322 322 327 333 329 325 327 327 322 318 315 313 310 307 306 303 297 293 290 285 283 282 284 292 290
257 252 249 242 240 244 252 262 273 284 289 297 306 311 311 314 315 318 323 326 334 333 335 333 334 334 328 324 320 319 314 308 310 308 305 302 297 290 288 285 284 287 287 288
228 236 234 232 239 250 262 271 282 288 294 301 306 308 313 316 317 321 327 335 334 337 341 346 339 335 332 330 323 319 319 317 319 317 314 311 308 302 299 296 295 296 293 296
238 239 243 248 252 263 272 282 289 294 298 304 308 311 313 316 318 323 331 336 337 346 357 349 343 343 338 338 335 325 319 322 326 327 328 325 319 315 308 305 305 308 311 301
240 242 247 258 267 277 286 290 294 297 302 304 306 308 310 314 315 323 332 336 343 348 358 352 352 353 354 348 340 336 337 337 340 343 343 342 341 340 334 326 314 303 301 300
241 254 265 273 282 288 292 296 297 298 303 301 301 304 305 308 314 323 327 339 347 351 352 353 357 4 358 357 357 356 355 354 354 357 0 2 3 3 4 3 356 349 343 336
264 275 284 289 293 297 298 297 297 299 301 297 296 299 299 305 313 318 325 344 353 357 358 1 4 8 7 8 14 16 15 15 15 15 17 19 22 26 28 28 29 31 38 51
278 287 294 299 300 302 299 298 297 299 299 295 289 287 291 299 305 315 330 344 354 357 6 4 10 12 10 17 24 30 34 35 36 36 35 33 34 36 39 40 42 47 58 74
295 299 303 304 307 309 309 302 299 298 295 289 285 284 285 297 308 327 346 352 356 358 3 6 11 13 13 23 30 35 39 43 48 51 50 48 45 44 46 50 56 64 74 85
304 307 312 312 311 310 309 304 297 294 295 293 283 278 286 297 286 327 341 353 354 357 360 4 8 13 17 25 29 35 40 42 45 49 54 60 63 62 61 63 67 73 80 86
311 318 320 319 315 309 307 309 308 298 299 291 278 283 295 308 320 334 347 348 352 356 2 5 8 13 18 24 28 33 36 39 43 47 50 54 58 64 71 75 77 79 81 85
327 330 333 335 335 332 327 321 319 318 318 304 293 308 312 317 326 334 339 345 350 354 359 6 10 14 17 21 25 28 31 33 37 41 44 48 54 59 63 64 70 75 79 84
11 0 0 353 354 356 354 349 346 344 334 334 323 330 331 333 336 338 340 344 348 354 0 4 6 9 12 15 18 22 25 28 28 30 32 36 40 45 48 52 56 60 63 67
Wind_Speed_850mb
25 24 23 27 32 34 33 29 17 30 36 43 33 4 1 6 8 13 9 11 16 22 26 32 39 44 48 51 54 59 62 63 64 60 58 60 61 61 59 53 53 54 57 58
27 33 28 32 35 39 38 41 44 47 51 39 1 4 8 12 15 19 15 19 23 28 31 36 39 46 46 49 54 60 63 65 67 72 71 65 65 69 69 65 61 59 61 58
35 31 19 21 39 34 38 46 47 45 27 11 4 9 17 18 28 32 26 29 35 38 37 35 38 48 52 54 55 55 56 60 65 71 77 79 80 73 73 75 73 70 66 64
22 16 38 30 23 27 35 35 1 6 7 4 8 21 26 26 35 38 33 31 39 45 49 47 54 60 63 64 62 61 58 60 65 72 78 81 84 86 83 80 78 77 77 73
16 30 36 39 33 18 17 27 14 15 7 9 24 25 42 31 41 44 43 41 48 60 69 71 70 69 71 73 74 76 75 78 76 76 77 81 85 91 94 94 93 87 83 82
5 14 19 14 4 5 4 18 18 10 5 16 19 17 26 49 43 43 47 55 60 61 71 78 80 80 85 92 91 91 89 87 86 86 86 86 86 89 95 98 100 102 100 90
25 23 18 11 9 12 10 9 17 21 33 32 20 36 50 47 44 49 54 65 70 69 80 87 84 90 97 95 92 80 85 95 98 101 105 103 101 96 95 100 106 107 109 107
2 7 20 11 14 11 3 29 40 38 45 41 46 43 45 48 50 47 47 53 64 79 88 89 94 91 93 101 94 84 78 89 103 114 120 120 119 116 109 106 107 113 116 118
17 14 9 15 20 35 57 57 59 51 50 42 39 44 43 41 37 41 49 63 74 80 90 95 95 88 88 100 87 92 104 114 112 107 113 117 118 120 114 118 113 114 112 107
25 38 42 60 64 68 71 60 54 50 49 48 37 32 43 45 47 53 58 64 73 83 91 102 104 102 95 106 105 105 112 111 104 96 96 94 94 92 88 94 99 95 92 95
29 41 50 63 63 71 67 58 49 44 41 34 37 41 41 47 55 58 59 64 65 81 93 102 104 103 99 101 103 105 104 101 93 88 86 86 82 81 80 84 83 87 90 84
31 57 43 63 63 55 48 41 38 38 35 33 33 40 47 53 55 59 62 69 79 85 90 93 90 92 93 86 80 81 86 82 79 81 83 82 84 89 81 79 82 85 90 90
57 79 63 73 57 50 51 44 35 32 31 35 36 39 45 53 57 68 73 73 75 78 81 83 86 88 83 74 71 76 82 85 84 80 80 79 80 81 87 83 69 71 74 78
70 62 56 49 29 37 38 34 30 30 30 33 36 40 46 55 65 70 75 72 69 70 75 79 83 84 78 70 72 75 76 79 82 82 80 79 79 80 80 77 77 76 62 61
63 59 53 38 34 33 30 29 28 28 32 33 38 44 53 63 69 73 69 62 63 68 75 77 78 79 70 69 70 72 74 77 78 80 81 82 83 83 82 80 77 78 75 57
42 39 31 30 30 28 26 26 27 26 31 38 44 50 56 61 64 64 57 54 63 70 71 70 76 77 72 66 66 69 72 72 72 74 76 77 76 75 75 73 70 68 61 53
20 21 27 26 26 27 26 25 25 30 38 44 49 52 56 58 59 53 48 50 55 59 61 67 74 70 66 65 62 61 65 69 67 67 68 69 70 72 72 68 63 57 46 34
28 27 23 23 22 24 25 27 32 38 44 47 49 52 53 51 49 45 44 48 51 54 59 63 64 62 59 55 55 55 56 55 54 54 54 55 58 61 62 61 51 45 42 39
21 20 18 19 22 25 30 35 39 42 43 46 49 49 46 40 35 35 38 41 46 54 58 59 59 59 60 54 47 47 46 46 45 44 43 42 42 39 32 30 32 30 29 25
15 15 17 20 25 31 36 36 42 45 41 44 44 41 37 26 25 27 29 31 37 45 49 52 56 58 57 49 42 41 40 40 39 39 39 38 39 38 34 28 24 20 15 10
15 19 22 27 30 30 35 41 45 44 39 36 37 31 26 19 18 22 25 29 32 37 40 45 49 55 53 49 45 40 38 39 39 39 39 39 39 38 36 33 29 24 19 15
18 22 25 29 33 33 32 35 37 37 34 29 24 21 19 16 16 14 17 27 32 35 39 42 46 49 49 49 49 48 44 41 41 42 42 41 42 41 39 37 35 31 27 23
21 24 27 29 30 31 29 28 27 28 25 20 16 15 15 14 15 18 16 20 26 31 33 35 39 41 42 46 48 50 52 52 49 46 45 45 45 45 44 42 42 42 41 41
18 21 22 24 26 27 26 20 20 17 16 14 12 12 11 9 8 12 16 20 22 25 27 30 31 33 36 40 42 46 49 51 52 51 49 47 45 45 45 44 44 43 44 43
13 15 17 18 17 18 17 16 13 10 10 7 7 7 8 8 8 11 15 17 19 21 23 24 27 29 31 33 36 39 41 43 45 46 47 48 47 46 44 42 41 39 38 37
7 9 12 13 14 14 12 11 10 8 6 4 4 5 6 7 9 12 15 17 19 21 23 25 27 28 29 30 31 32 32 32 34 35 36 37 37 38 38 36 34 32 31 30
5 7 7 8 9 10 9 9 8 7 6 6 5 7 8 9 11 13 15 16 18 19 21 23 24 25 26 27 28 28 28 28 27 27 27 26 25 25 25 24 23 22 21 19
Wind_Direction_850mb
275 280 279 273 275 265 260 268 258 285 288 279 299 331 10 322 265 236 272 323 334 340 338 341 338 335 333 333 334 333 334 335 335 333 331 329 330 330 329 322 311 315 319 318
282 278 259 263 261 264 275 272 264 261 266 287 302 325 262 293 303 284 298 332 335 333 329 330 326 329 324 320 323 324 325 324 323 322 324 327 325 323 325 326 324 314 299 305
270 276 288 260 246 260 267 270 271 275 293 97 185 286 302 306 318 303 295 325 332 330 323 312 309 317 320 315 314 313 311 312 315 317 318 320 322 323 322 322 322 322 315 303
272 299 258 274 314 276 271 281 32 115 129 198 286 302 295 291 293 291 276 300 317 323 321 317 312 312 316 313 305 304 300 300 303 306 307 310 313 315 317 318 319 319 315 313
251 251 287 301 281 253 245 278 182 161 177 334 319 301 295 298 298 290 276 279 302 319 319 317 313 310 312 311 309 303 299 299 299 298 297 298 301 304 308 311 312 313 314 312
167 249 265 306 124 109 122 276 176 189 261 296 302 276 293 308 305 292 286 278 293 307 311 311 311 310 309 309 309 305 304 301 299 297 295 295 294 295 298 300 303 306 306 307
237 250 266 267 151 144 237 293 170 250 272 281 268 268 288 295 294 294 297 285 287 299 306 307 307 309 306 307 304 303 302 300 297 296 296 295 293 291 292 292 295 296 298 298
169 248 267 172 130 222 267 299 300 289 293 289 293 287 287 294 298 296 288 287 293 300 301 302 305 308 307 305 307 302 296 296 296 297 295 293 293 291 289 289 288 289 292 293
215 246 257 200 244 258 285 288 286 288 294 295 287 286 290 293 293 290 292 297 301 303 304 304 306 307 304 304 303 299 296 294 293 293 293 293 292 291 290 287 286 284 285 286
262 254 259 268 268 273 279 279 283 287 293 292 284 288 296 298 298 299 302 304 305 305 306 306 307 306 302 301 300 296 293 293 293 292 291 289 287 286 283 282 281 279 278 276
252 262 273 266 267 270 274 276 276 276 281 280 287 295 299 300 302 305 305 306 307 308 308 307 310 308 308 307 305 300 297 295 294 293 291 290 286 283 278 275 272 274 270 268
256 268 262 273 276 277 275 262 259 271 276 282 290 296 300 303 306 306 308 310 312 312 312 313 313 313 314 315 313 309 304 300 298 295 294 292 290 289 285 277 275 269 266 264
254 268 269 267 276 262 261 260 261 270 277 287 293 296 302 305 307 309 313 315 317 316 317 318 317 315 318 320 318 312 306 303 299 295 292 290 289 287 288 292 282 273 268 265
265 271 268 254 244 253 250 252 262 276 282 289 294 301 304 306 309 314 318 321 319 320 322 324 322 318 323 319 315 313 311 309 304 299 295 292 289 286 286 285 287 288 281 273
269 258 257 253 246 243 246 257 266 278 287 291 297 306 311 313 315 317 321 322 322 327 333 329 325 327 327 322 318 315 313 310 307 306 303 297 293 290 285 283 282 284 292 290
257 252 249 242 240 244 252 262 273 284 289 297 306 311 311 314 315 318 323 326 334 333 335 333 334 334 328 324 320 319 314 308 310 308 305 302 297 290 288 285 284 287 287 288
228 236 234 232 239 250 262 271 282 288 294 301 306 308 313 316 317 321 327 335 334 337 341 346 339 335 332 330 323 319 319 317 319 317 314 311 308 302 299 296 295 296 293 296
238 239 243 248 252 263 272 282 289 294 298 304 308 311 313 316 318 323 331 336 337 346 357 349 343 343 338 338 335 325 319 322 326 327 328 325 319 315 308 305 305 308 311 301
240 242 247 258 267 277 286 290 294 297 302 304 306 308 310 314 315 323 332 336 343 348 358 352 352 353 354 348 340 336 337 337 340 343 343 342 341 340 334 326 314 303 301 300
241 254 265 273 282 288 292 296 297 298 303 301 301 304 305 308 314 323 327 339 347 351 352 353 357 4 358 357 357 356 355 354 354 357 0 2 3 3 4 3 356 349 343 336
264 275 284 289 293 297 298 297 297 299 301 297 296 299 299 305 313 318 325 344 353 357 358 1 4 8 7 8 14 16 15 15 15 15 17 19 22 26 28 28 29 31 38 51
278 287 294 299 300 302 299 298 297 299 299 295 289 287 291 299 305 315 330 344 354 357 6 4 10 12 10 17 24 30 34 35 36 36 35 33 34 36 39 40 42 47 58 74
295 299 303 304 307 309 309 302 299 298 295 289 285 284 285 297 308 327 346 352 356 358 3 6 11 13 13 23 30 35 39 43 48 51 50 48 45 44 46 50 56 64 74 85
304 307 312 312 311 310 309 304 297 294 295 293 283 278 286 297 286 327 341 353 354 357 360 4 8 13 17 25 29 35 40 42 45 49 54 60 63 62 61 63 67 73 80 86
311 318 320 319 315 309 307 309 308 298 299 291 278 283 295 308 320 334 347 348 352 356 2 5 8 13 18 24 28 33 36 39 43 47 50 54 58 64 71 75 77 79 81 85
327 330 333 335 335 332 327 321 319 318 318 304 293 308 312 317 326 334 339 345 350 354 359 6 10 14 17 21 25 28 31 33 37 41 44 48 54 59 63 64 70 75 79 84
11 0 0 353 354 356 354 349 346 344 334 334 323 330 331 333 336 338 340 344 348 354 0 4 6 9 12 15 18 22 25 28 28 30 32 36 40 45 48 52 56 60 63 67